Marfa, TX

5:38 AM CDT on May 26, 2017 (GMT -0500)
Marfa Municipal

Weather History for KMRF - December, 2013

Change the Weather History Date:

Sunday, December 22, 2013

  Actual Average Record
Temperature  
Mean Temperature 37 °F -  
Max Temperature 48 °F 52 °F 75 °F (2010)
Min Temperature 24 °F 22 °F 17 °F (1999)
Degree Days  
Heating Degree Days 28    
Moisture  
Dew Point 29 °F    
Average Humidity 71    
Maximum Humidity 100    
Minimum Humidity 46    
Precipitation  
Precipitation 0.00 in - - ()
Sea Level Pressure  
Sea Level Pressure 30.13 in    
Wind  
Wind Speed 15 mph (WNW)    
Max Wind Speed 30 mph    
Max Gust Speed 36 mph    
Visibility 10 miles    
Events      
Averages and records for this station are not official NWS values.
T = Trace of Precipitation, MM = Missing Value Source: NWS Daily Summary

Daily Weather History Graph

Daily Weather History Graph

Search for Another Location

Airport or City:

Trip Planner

Search our weather history database for the weather conditions in past years. The results will help you decide how hot, cold, wet, or windy it might be!

Date:

Astronomy

Dec. 22, 2013 Rise Set
Actual Time 7:49 AM CST 6:00 PM CST
Civil Twilight 7:22 AM CST 6:27 PM CST
Nautical Twilight 6:52 AM CST 6:57 PM CST
Astronomical Twilight 6:23 AM CST 7:26 PM CST
Moon 10:55 PM CST (12/22) 11:04 AM CST (12/22)
Length of Visible Light 11h 04m
Length of Day
10h 11m
Waning Gibbous, 76% of the Moon is Illuminated
Dec 22
Waning Gibbous
Dec 25
Last Quarter
Jan 1
New
Jan 7
First Quarter
Jan 15
Full

Hourly Weather History & Observations

Time (CST) Temp. Windchill Dew Point Humidity Pressure Visibility Wind Dir Wind Speed Gust Speed Precip Events Conditions
12:15 AM 41.0 °F 30.0 °F 28.4 °F 61% 29.88 in 10.0 mi West 28.8 mph 34.5 mph N/A   Clear
12:35 AM 41.0 °F 29.8 °F 28.4 °F 61% 29.88 in 10.0 mi West 29.9 mph 35.7 mph N/A   Clear
12:55 AM 39.2 °F 27.6 °F 28.4 °F 65% 29.89 in 10.0 mi West 28.8 mph 35.7 mph N/A   Clear
1:15 AM 39.2 °F 28.3 °F 28.4 °F 65% 29.90 in 10.0 mi West 25.3 mph 31.1 mph N/A   Clear
1:35 AM 39.2 °F 28.5 °F 30.2 °F 70% 29.91 in 10.0 mi West 24.2 mph - N/A   Clear
1:55 AM 39.2 °F 28.0 °F 30.2 °F 70% 29.90 in 10.0 mi West 26.5 mph 29.9 mph N/A   Clear
2:15 AM 39.2 °F 28.5 °F 30.2 °F 70% 29.91 in 10.0 mi West 24.2 mph 33.4 mph N/A   Clear
2:35 AM 39.2 °F 28.5 °F 30.2 °F 70% 29.92 in 10.0 mi West 24.2 mph 29.9 mph N/A   Clear
2:55 AM 37.4 °F 28.5 °F 30.2 °F 75% 29.95 in 10.0 mi West 15.0 mph 23.0 mph N/A   Clear
3:15 AM 37.4 °F 29.8 °F 30.2 °F 75% 29.96 in 10.0 mi West 11.5 mph - N/A   Clear
3:35 AM 37.4 °F 32.8 °F 30.2 °F 75% 29.97 in 10.0 mi NW 5.8 mph - N/A   Clear
3:55 AM 35.6 °F 31.7 °F 30.2 °F 81% 29.99 in 10.0 mi North 4.6 mph - N/A   Clear
4:15 AM 35.6 °F 30.7 °F 30.2 °F 81% 29.99 in 10.0 mi West 5.8 mph - N/A   Partly Cloudy
4:35 AM 35.6 °F 29.2 °F 30.2 °F 81% 30.00 in 10.0 mi WSW 8.1 mph - N/A   Clear
4:55 AM 35.6 °F 29.9 °F 30.2 °F 81% 30.01 in 10.0 mi West 6.9 mph - N/A   Clear
5:15 AM 35.6 °F 29.9 °F 30.2 °F 81% 30.01 in 10.0 mi WNW 6.9 mph - N/A   Clear
5:35 AM 33.8 °F 29.6 °F 30.2 °F 87% 30.03 in 10.0 mi North 4.6 mph - N/A   Scattered Clouds
5:55 AM 35.6 °F - 30.2 °F 81% 30.03 in 10.0 mi Calm Calm - N/A   Scattered Clouds
6:15 AM 35.6 °F - 30.2 °F 81% 30.04 in 10.0 mi Calm Calm - N/A   Clear
6:35 AM 33.8 °F 28.6 °F 28.4 °F 81% 30.06 in 10.0 mi NNE 5.8 mph - N/A   Clear
6:55 AM 35.6 °F 28.6 °F 32.0 °F 87% 30.07 in 10.0 mi WNW 9.2 mph - N/A   Mostly Cloudy
7:15 AM 37.4 °F 30.3 °F 30.2 °F 75% 30.08 in 10.0 mi WNW 10.4 mph - N/A   Scattered Clouds
7:35 AM 35.6 °F 27.5 °F 30.2 °F 81% 30.09 in 10.0 mi NW 11.5 mph - N/A   Clear
7:55 AM 35.6 °F 27.5 °F 30.2 °F 81% 30.10 in 10.0 mi WNW 11.5 mph - N/A   Clear
8:15 AM 35.6 °F 28.0 °F 30.2 °F 81% 30.11 in 10.0 mi WNW 10.4 mph - N/A   Clear
8:35 AM 37.4 °F 29.8 °F 30.2 °F 75% 30.12 in 10.0 mi WNW 11.5 mph - N/A   Clear
8:55 AM 37.4 °F 29.8 °F 32.0 °F 81% 30.13 in 10.0 mi WNW 11.5 mph - N/A   Clear
9:15 AM 39.2 °F 32.5 °F 33.8 °F 81% 30.14 in 10.0 mi WNW 10.4 mph - N/A   Clear
9:35 AM 41.0 °F 33.5 °F 32.0 °F 70% 30.15 in 10.0 mi NW 13.8 mph - N/A   Scattered Clouds
9:55 AM 42.8 °F 35.1 °F 30.2 °F 61% 30.16 in 10.0 mi WNW 16.1 mph - N/A   Mostly Cloudy
10:15 AM 42.8 °F 34.3 °F 30.2 °F 61% 30.16 in 10.0 mi WNW 19.6 mph 24.2 mph N/A   Scattered Clouds
10:35 AM 42.8 °F 34.8 °F 30.2 °F 61% 30.17 in 10.0 mi West 17.3 mph 26.5 mph N/A   Partly Cloudy
10:55 AM 44.6 °F 36.9 °F 30.2 °F 57% 30.18 in 10.0 mi WNW 18.4 mph 21.9 mph N/A   Clear
11:15 AM 42.8 °F 36.2 °F 30.2 °F 61% 30.18 in 10.0 mi WNW 12.7 mph - N/A   Mostly Cloudy
11:35 AM 44.6 °F 38.8 °F 28.4 °F 53% 30.19 in 10.0 mi WNW 11.5 mph - N/A   Mostly Cloudy
11:55 AM 42.8 °F 36.6 °F 28.4 °F 57% 30.19 in 10.0 mi WNW 11.5 mph - N/A   Overcast
12:15 PM 44.6 °F 38.4 °F 30.2 °F 57% 30.18 in 10.0 mi WNW 12.7 mph - N/A   Mostly Cloudy
12:35 PM 46.4 °F 40.7 °F 30.2 °F 53% 30.18 in 10.0 mi West 12.7 mph 18.4 mph N/A   Mostly Cloudy
12:55 PM 44.6 °F 39.2 °F 30.2 °F 57% 30.19 in 10.0 mi WNW 10.4 mph - N/A   Mostly Cloudy
1:15 PM 46.4 °F 41.9 °F 30.2 °F 53% 30.18 in 10.0 mi NNW 9.2 mph - N/A   Mostly Cloudy
1:35 PM 44.6 °F 40.2 °F 30.2 °F 57% 30.18 in 10.0 mi WNW 8.1 mph - N/A   Overcast
1:55 PM 44.6 °F 40.7 °F 30.2 °F 57% 30.17 in 10.0 mi West 6.9 mph - N/A   Overcast
2:15 PM 46.4 °F 40.4 °F 28.4 °F 50% 30.16 in 10.0 mi WSW 13.8 mph 18.4 mph N/A   Mostly Cloudy
2:35 PM 48.2 °F - 30.2 °F 50% 30.17 in 10.0 mi WSW 13.8 mph 18.4 mph N/A   Mostly Cloudy
2:55 PM 48.2 °F - 30.2 °F 50% 30.17 in 10.0 mi WNW 11.5 mph - N/A   Overcast
3:15 PM 48.2 °F - 28.4 °F 46% 30.17 in 10.0 mi West 9.2 mph 17.3 mph N/A   Mostly Cloudy
3:35 PM 48.2 °F - 28.4 °F 46% 30.18 in 10.0 mi West 10.4 mph - N/A   Mostly Cloudy
3:55 PM 46.4 °F 41.1 °F 28.4 °F 50% 30.19 in 10.0 mi West 11.5 mph - N/A   Mostly Cloudy
4:15 PM 46.4 °F 40.1 °F 26.6 °F 46% 30.19 in 10.0 mi West 15.0 mph - N/A   Mostly Cloudy
4:35 PM 46.4 °F 40.4 °F 26.6 °F 46% 30.19 in 10.0 mi West 13.8 mph 20.7 mph N/A   Mostly Cloudy
4:55 PM 46.4 °F 40.7 °F 28.4 °F 50% 30.20 in 10.0 mi West 12.7 mph 18.4 mph N/A   Scattered Clouds
5:15 PM 46.4 °F 41.9 °F 26.6 °F 46% 30.20 in 10.0 mi West 9.2 mph - N/A   Clear
5:35 PM 44.6 °F 40.2 °F 26.6 °F 49% 30.20 in 10.0 mi West 8.1 mph - N/A   Clear
5:55 PM 42.8 °F 38.0 °F 26.6 °F 53% 30.21 in 10.0 mi West 8.1 mph - N/A   Clear
6:15 PM 39.2 °F 35.0 °F 28.4 °F 65% 30.22 in 10.0 mi WNW 5.8 mph - N/A   Clear
6:35 PM 35.6 °F 29.9 °F 26.6 °F 70% 30.22 in 10.0 mi North 6.9 mph - N/A   Clear
6:55 PM 35.6 °F 30.7 °F 28.4 °F 75% 30.23 in 10.0 mi NE 5.8 mph - N/A   Clear
7:15 PM 33.8 °F 28.6 °F 28.4 °F 81% 30.24 in 10.0 mi NE 5.8 mph - N/A   Clear
7:35 PM 30.2 °F 24.3 °F 28.4 °F 93% 30.24 in 10.0 mi NNE 5.8 mph - N/A   Clear
7:55 PM 30.2 °F - 26.6 °F 86% 30.25 in 10.0 mi Calm Calm - N/A   Clear
8:15 PM 30.2 °F 25.4 °F 28.4 °F 93% 30.25 in 10.0 mi NNW 4.6 mph - N/A   Clear
8:35 PM 28.4 °F 22.2 °F 28.4 °F 100% 30.26 in 10.0 mi North 5.8 mph - N/A   Clear
8:55 PM 28.4 °F 23.3 °F 26.6 °F 93% 30.27 in 10.0 mi North 4.6 mph - N/A   Clear
9:15 PM 28.4 °F 24.6 °F 26.6 °F 93% 30.27 in 10.0 mi NNE 3.5 mph - N/A   Clear
9:35 PM 28.4 °F 24.6 °F 26.6 °F 93% 30.28 in 10.0 mi NNW 3.5 mph - N/A   Clear
9:55 PM 28.4 °F 22.2 °F 26.6 °F 93% 30.28 in 10.0 mi NW 5.8 mph - N/A   Clear
10:15 PM 28.4 °F 22.2 °F 26.6 °F 93% 30.29 in 9.0 mi NNW 5.8 mph - N/A   Clear
10:35 PM 26.6 °F 19.1 °F 24.8 °F 93% 30.29 in 8.0 mi NNW 6.9 mph - N/A   Clear
10:55 PM 26.6 °F 19.1 °F 24.8 °F 93% 30.30 in 8.0 mi NNW 6.9 mph - N/A   Clear
11:15 PM 26.6 °F 20.0 °F 24.8 °F 93% 30.30 in 8.0 mi NNW 5.8 mph - N/A   Clear
11:35 PM 26.6 °F - 24.8 °F 93% 30.31 in 9.0 mi Calm Calm - N/A   Clear
11:55 PM 24.8 °F 17.9 °F 24.8 °F 100% 30.31 in 8.0 mi NW 5.8 mph - N/A   Clear